Starlink 11295

operational
NORAD ID: 61536 Int'l Des: 2024-184 Owner: SPXS Country: US Constellation: starlink
LEOCIRCULAR

About Starlink 11295

Description loading...

Live Position

Loading 3D Globe...

Upcoming Passes

Altitude History

Altitude vs Time

uPlot chart will show altitude changes over time

Two-Line Element Set

1 61536U 24184E 25354.07234919 -.00000505 00000-0 68785-6 0 9995
2 61536 53.1591 268.6655 0001138 85.7627 274.3521 15.69704972 67910
Epoch: Dec 20, 2025 • Age: 25 hours

Current Status

Altitude 362.5 km
Velocity 7.70 km/s
Sub-Earth Point 38.70°N, 84.03°W
Launch Date Oct 15, 2024
Age 1.1 years
Type internet

Technical Details

Classification Payload
Mass 960.00 kg
Dry Mass 910.00 kg
Total Mass 960.00 kg
Length 0.30 m
Diameter 4.10 m
Span 29.00 m
Shape Box + pan
Manufacturer SPXS
Bus Type Starlink V2MD
Phase Status In Orbit
Owner/State SPXS/US

Large Constellations

Loading constellations...